| time (UTC) | temp F | wind direction | speed MPH | gust MPH | rain 1hr in | rain 24hr in | rain mn in | humidity % | barometer mb |
| 20260831194624 | 96 | 115 | 8.0 | 17.0 | 0.00 | 0.00 | 0.00 | 35 | 1013.0 |
| 20260831193056 | 97 | 360 | 7.0 | 17.0 | 0.00 | 0.00 | 0.00 | 36 | 1013.2 |
| 20260831191553 | 97 | 129 | 10.0 | 14.0 | 0.00 | 0.00 | 0.00 | 35 | 1013.5 |
| 20260831190115 | 96 | 128 | 5.0 | 15.0 | 0.00 | 0.00 | 0.00 | 36 | 1013.5 |
| 20260831184559 | 97 | 124 | 9.0 | 16.0 | 0.00 | 0.00 | 0.00 | 36 | 1013.7 |
| 20260831183049 | 96 | 108 | 7.0 | 19.0 | 0.00 | 0.00 | 0.00 | 37 | 1013.8 |
| 20260831181550 | 95 | 192 | 7.0 | 15.0 | 0.00 | 0.00 | 0.00 | 38 | 1014.0 |
| 20260831180047 | 96 | 168 | 8.0 | 15.0 | 0.00 | 0.00 | 0.00 | 37 | 1014.4 |
| 20260831174547 | 96 | 360 | 8.0 | 13.0 | 0.00 | 0.00 | 0.00 | 37 | 1014.6 |
| 20260831173045 | 95 | 163 | 7.0 | 15.0 | 0.00 | 0.00 | 0.00 | 39 | 1014.8 |
| 20260831171542 | 95 | 178 | 6.0 | 14.0 | 0.00 | 0.00 | 0.00 | 39 | 1015.0 |
| 20260831170041 | 94 | 84 | 6.0 | 15.0 | 0.00 | 0.00 | 0.00 | 39 | 1015.1 |
| 20260831164548 | 93 | 167 | 6.0 | 12.0 | 0.00 | 0.00 | 0.00 | 42 | 1015.1 |
| 20260831163038 | 92 | 169 | 7.0 | 13.0 | 0.00 | 0.00 | 0.00 | 43 | 1015.1 |
| 20260831161533 | 92 | 182 | 5.0 | 13.0 | 0.00 | 0.00 | 0.00 | 44 | 1015.2 |
| 20260831160031 | 91 | 179 | 6.0 | 11.0 | 0.00 | 0.00 | 0.00 | 45 | 1015.1 |
| 20260831154529 | 89 | 193 | 7.0 | 12.0 | 0.00 | 0.00 | 0.00 | 49 | 1015.2 |
| 20260831153024 | 88 | 184 | 8.0 | 15.0 | 0.00 | 0.00 | 0.00 | 50 | 1015.0 |
| 20260831151520 | 87 | 307 | 7.0 | 12.0 | 0.00 | 0.00 | 0.00 | 55 | 1014.9 |
| 20260831150020 | 85 | 207 | 8.0 | 14.0 | 0.00 | 0.00 | 0.00 | 59 | 1015.0 |
| 20260831144517 | 85 | 207 | 8.0 | 12.0 | 0.00 | 0.00 | 0.00 | 62 | 1014.9 |
| 20260831143015 | 84 | 229 | 6.0 | 13.0 | 0.00 | 0.00 | 0.00 | 64 | 1014.9 |
| 20260831141514 | 82 | 223 | 7.0 | 14.0 | 0.00 | 0.00 | 0.00 | 67 | 1014.9 |
| 20260831140013 | 81 | 360 | 7.0 | 16.0 | 0.00 | 0.00 | 0.00 | 70 | 1014.9 |
| 20260831134518 | 80 | 180 | 6.0 | 12.0 | 0.00 | 0.00 | 0.00 | 73 | 1014.8 |
| 20260831133014 | 79 | 190 | 5.0 | 10.0 | 0.00 | 0.00 | 0.00 | 75 | 1014.6 |
| 20260831131509 | 79 | 360 | 6.0 | 10.0 | 0.00 | 0.00 | 0.00 | 76 | 1014.4 |
| 20260831130008 | 78 | 360 | 5.0 | 11.0 | 0.00 | 0.00 | 0.00 | 77 | 1014.2 |
| 20260831124505 | 77 | 360 | 3.0 | 7.0 | 0.00 | 0.00 | 0.00 | 79 | 1013.9 |
| 20260831123006 | 76 | 360 | 4.0 | 8.0 | 0.00 | 0.00 | 0.00 | 79 | 1013.8 |
| 20260831121503 | 76 | 178 | 3.0 | 8.0 | 0.00 | 0.00 | 0.00 | 79 | 1013.6 |
| 20260831120100 | 76 | 360 | 4.0 | 7.0 | 0.00 | 0.00 | 0.00 | 79 | 1013.4 |
| 20260831114602 | 76 | 163 | 3.0 | 7.0 | 0.00 | 0.00 | 0.00 | 78 | 1013.2 |
| 20260831113105 | 77 | 360 | 3.0 | 8.0 | 0.00 | 0.00 | 0.00 | 78 | 1013.0 |
| 20260831111555 | 77 | 176 | 4.0 | 8.0 | 0.00 | 0.00 | 0.00 | 77 | 1012.9 |
| 20260831110051 | 77 | 360 | 4.0 | 9.0 | 0.00 | 0.00 | 0.00 | 76 | 1012.8 |
| 20260831104556 | 78 | 175 | 4.0 | 8.0 | 0.00 | 0.00 | 0.00 | 75 | 1012.8 |
| 20260831103046 | 78 | 146 | 5.0 | 12.0 | 0.00 | 0.00 | 0.00 | 75 | 1012.7 |
| 20260831101546 | 78 | 360 | 4.0 | 8.0 | 0.00 | 0.00 | 0.00 | 73 | 1012.7 |
| 20260831100046 | 79 | 200 | 4.0 | 8.0 | 0.00 | 0.00 | 0.00 | 72 | 1012.7 |
| 20260831094550 | 79 | 173 | 4.0 | 7.0 | 0.00 | 0.00 | 0.00 | 72 | 1012.7 |
| 20260831093106 | 79 | 177 | 4.0 | 7.0 | 0.00 | 0.00 | 0.00 | 71 | 1012.7 |
| 20260831091547 | 79 | 360 | 3.0 | 9.0 | 0.00 | 0.00 | 0.00 | 70 | 1012.5 |
| 20260831090036 | 79 | 164 | 4.0 | 9.0 | 0.00 | 0.00 | 0.00 | 69 | 1012.4 |
| 20260831084619 | 80 | 183 | 3.0 | 9.0 | 0.00 | 0.00 | 0.00 | 68 | 1012.4 |
| 20260831083032 | 80 | 211 | 4.0 | 10.0 | 0.00 | 0.00 | 0.00 | 67 | 1012.4 |
| 20260831081532 | 80 | 360 | 6.0 | 10.0 | 0.00 | 0.00 | 0.00 | 66 | 1012.4 |
| 20260831080038 | 81 | 360 | 6.0 | 12.0 | 0.00 | 0.00 | 0.00 | 64 | 1012.4 |
| 20260831074541 | 82 | 162 | 7.0 | 12.0 | 0.00 | 0.00 | 0.00 | 63 | 1012.4 |
| 20260831073023 | 82 | 360 | 7.0 | 13.0 | 0.00 | 0.00 | 0.00 | 62 | 1012.4 |
| 20260831071527 | 82 | 179 | 7.0 | 14.0 | 0.00 | 0.00 | 0.00 | 60 | 1012.3 |
| 20260831070028 | 83 | 191 | 9.0 | 16.0 | 0.00 | 0.00 | 0.00 | 58 | 1012.3 |
| 20260831064516 | 84 | 360 | 8.0 | 15.0 | 0.00 | 0.00 | 0.00 | 55 | 1012.5 |
| 20260831063014 | 84 | 195 | 7.0 | 14.0 | 0.00 | 0.00 | 0.00 | 54 | 1012.5 |
| 20260831061512 | 85 | 360 | 8.0 | 16.0 | 0.00 | 0.00 | 0.00 | 52 | 1012.5 |
| 20260831060011 | 85 | 360 | 6.0 | 11.0 | 0.00 | 0.00 | 0.00 | 52 | 1012.4 |
| 20260831054515 | 85 | 360 | 5.0 | 9.0 | 0.00 | 0.00 | 0.00 | 51 | 1012.5 |
| 20260831053010 | 85 | 157 | 5.0 | 10.0 | 0.00 | 0.00 | 0.00 | 49 | 1012.4 |
| 20260831051522 | 85 | 190 | 6.0 | 10.0 | 0.00 | 0.00 | 0.00 | 49 | 1012.2 |
| 20260831050004 | 84 | 157 | 5.0 | 9.0 | 0.00 | 0.00 | 0.00 | 51 | 1012.2 |
| 20260831044507 | 84 | 147 | 4.0 | 8.0 | 0.00 | 0.00 | 0.00 | 51 | 1012.2 |
| 20260831043003 | 83 | 157 | 4.0 | 8.0 | 0.00 | 0.00 | 0.00 | 53 | 1012.2 |
| 20260831041507 | 81 | 148 | 4.0 | 8.0 | 0.00 | 0.00 | 0.00 | 57 | 1012.1 |
| 20260831040009 | 80 | 138 | 3.0 | 6.0 | 0.00 | 0.00 | 0.00 | 59 | 1012.1 |
| 20260831034504 | 80 | 142 | 3.0 | 5.0 | 0.00 | 0.00 | 0.00 | 59 | 1012.0 |
| 20260831033001 | 80 | 157 | 3.0 | 7.0 | 0.00 | 0.00 | 0.00 | 66 | 1011.9 |
| 20260831031601 | 78 | 134 | 2.0 | 4.0 | 0.00 | 0.00 | 0.00 | 84 | 1011.8 |
| 20260831030105 | 77 | 360 | 2.0 | 4.0 | 0.00 | 0.00 | 0.00 | 85 | 1011.6 |
| 20260831024603 | 77 | 155 | 2.0 | 5.0 | 0.00 | 0.00 | 0.00 | 85 | 1011.4 |
| 20260831023059 | 76 | 130 | 2.0 | 6.0 | 0.00 | 0.00 | 0.00 | 86 | 1011.3 |
| 20260831021601 | 75 | 144 | 2.0 | 6.0 | 0.00 | 0.00 | 0.00 | 87 | 1011.1 |
| 20260831020058 | 74 | 144 | 2.0 | 4.0 | 0.00 | 0.00 | 0.00 | 87 | 1010.9 |
| 20260831014607 | 73 | 148 | 2.0 | 5.0 | 0.00 | 0.00 | 0.00 | 87 | 1010.6 |
| 20260831013057 | 72 | 148 | 3.0 | 6.0 | 0.00 | 0.00 | 0.00 | 87 | 1010.5 |
| 20260831011600 | 73 | 154 | 3.0 | 5.0 | 0.00 | 0.00 | 0.00 | 87 | 1010.4 |
| 20260831004548 | 76 | 163 | 3.0 | 8.0 | 0.00 | 0.00 | 0.00 | 83 | 1010.2 |
| 20260831003049 | 92 | 150 | 4.0 | 8.0 | 0.00 | 0.00 | 0.00 | 51 | 1010.3 |
| 20260831001546 | 95 | 360 | 6.0 | 12.0 | 0.00 | 0.00 | 0.00 | 31 | 1010.3 |
| 20260831000045 | 96 | 142 | 6.0 | 12.0 | 0.00 | 0.00 | 0.00 | 30 | 1010.4 |
| 20260830234546 | 96 | 360 | 6.0 | 13.0 | 0.00 | 0.00 | 0.00 | 30 | 1010.3 |
| 20260830233047 | 96 | 173 | 8.0 | 14.0 | 0.00 | 0.00 | 0.00 | 31 | 1010.4 |
| 20260830231545 | 97 | 137 | 7.0 | 14.0 | 0.00 | 0.00 | 0.00 | 31 | 1010.3 |
| 20260830230043 | 97 | 156 | 10.0 | 15.0 | 0.00 | 0.00 | 0.00 | 30 | 1010.4 |
| 20260830224542 | 98 | 173 | 8.0 | 16.0 | 0.00 | 0.00 | 0.00 | 30 | 1010.4 |
| 20260830223040 | 98 | 138 | 7.0 | 15.0 | 0.00 | 0.00 | 0.00 | 30 | 1010.5 |
| 20260830221542 | 98 | 172 | 7.0 | 12.0 | 0.00 | 0.00 | 0.00 | 30 | 1010.5 |
| 20260830220040 | 99 | 130 | 5.0 | 16.0 | 0.00 | 0.00 | 0.00 | 27 | 1010.6 |
| 20260830214539 | 98 | 116 | 7.0 | 12.0 | 0.00 | 0.00 | 0.00 | 25 | 1010.5 |
| 20260830213037 | 98 | 161 | 7.0 | 16.0 | 0.00 | 0.00 | 0.00 | 27 | 1010.7 |
| 20260830211547 | 98 | 127 | 10.0 | 19.0 | 0.00 | 0.00 | 0.00 | 28 | 1010.7 |
| 20260830210035 | 98 | 182 | 7.0 | 14.0 | 0.00 | 0.00 | 0.00 | 29 | 1011.0 |
| 20260830204532 | 99 | 141 | 8.0 | 17.0 | 0.00 | 0.00 | 0.00 | 28 | 1011.1 |
| 20260830203029 | 99 | 360 | 8.0 | 15.0 | 0.00 | 0.00 | 0.00 | 30 | 1011.3 |
| 20260830201529 | 98 | 86 | 6.0 | 15.0 | 0.00 | 0.00 | 0.00 | 30 | 1011.6 |
| 20260830200025 | 98 | 103 | 8.0 | 16.0 | 0.00 | 0.00 | 0.00 | 31 | 1011.8 |